Karabutak

Kazakhstan     49˚57′20″N   60˚07′12″E
temp.,
°C
wind,
m/s
gust,
m/s
humid.,
%
clouds,
%
prec.,
mm/h
press.,
hPa
HPBL,
m
1 december, tue
tue123:00−15˚ne479619 0.0 1051171
02:00−16˚ne489625 0.0 1049176
05:00−17˚ne499532 0.0 1050214
08:00−18˚ne499656 0.0 1048233
11:00−16˚ne699156 0.0 1048306
14:00−15˚ne6109022 0.0 1047345
17:00−16˚ne599338 0.0 1046263
20:00−17˚ne5109569 0.0 1046258
2 december, wed
wed223:00−18˚ne499564 0.0 1045243
02:00−19˚ne499638 0.0 1044225
05:00−19˚nne489642 0.0 1044188
08:00−19˚nne489652 0.0 1043194
11:00−16˚ne579242 0.0 1042259
14:00−14˚nne579059 0.0 1040293
17:00−16˚nne469460 0.0 103996
20:00−17˚n489518 0.0 1039142
3 december, thu
thu323:00−17˚n48949 0.0 1038148
02:00−18˚n47950 0.0 1038127
05:00−18˚n48940 0.0 1038140
08:00−18˚n599429 0.0 1037188
11:00−16˚n6109114 0.0 1037303
14:00−13˚n6108611 0.0 1036414
17:00−14˚n510896 0.0 1036223
20:00−15˚n511900 0.0 1036240
4 december, fri
fri423:00−16˚n511890 0.0 1037257
02:00−16˚n510890 0.0 1036208
05:00−16˚n511890 0.0 1036212
08:00−15˚n5108833 0.0 1037256
11:00−13˚n6118553 0.0 1037352
14:00−12˚n598145 0.0 1037376
17:00−14˚n578622 0.0 1038131
20:00−16˚n47870 0.0 1039122
5 december, sat
sat523:00−16˚n47860 0.0 1040111
02:00−16˚n47860 0.0 1040129
05:00−17˚n47870 0.0 1040116
08:00−17˚nne46870 0.0 104084
11:00−15˚nne47840 0.0 1041226
14:00−13˚nne47820 0.0 1040276
17:00−14˚nne468715 0.0 104087
20:00−16˚nne46870 0.0 104094